Location: Newark
(5.8900°S, 42.6378°W)
Time: 16:23:14
(UTC+00:00)

Tiros 1 despin weight - All Passes

Search period start: 23 October 2019 00:00
Search period end: 02 November 2019 00:00
Orbit: 593 x 643 km, 48.2° (Epoch: 22 October)

Date Brightness Start Highest point End Pass type
(mag) Time Alt. Az. Time Alt. Az. Time Alt. Az.
23 Oct - 11:19:31 10° NNW 11:24:02 61° NE 11:28:30 10° SE daylight
23 Oct - 13:04:39 10° WSW 13:05:35 11° SW 13:06:30 10° SW daylight
23 Oct - 21:44:47 10° S 21:48:09 21° SE 21:51:31 10° E visible
23 Oct - 23:25:40 10° WSW 23:29:33 28° NW 23:33:28 10° N visible
24 Oct - 09:57:07 10° NNE 09:59:10 13° NE 10:01:15 10° ENE daylight
24 Oct - 11:36:09 10° NW 11:40:33 47° SW 11:44:56 10° SSE daylight
24 Oct - 22:00:21 10° SSW 22:04:43 55° SE 22:09:08 10° NE visible
24 Oct - 23:45:05 10° WNW 23:46:05 11° NW 23:47:06 10° NW visible
25 Oct - 10:11:34 10° NNW 10:15:43 33° NE 10:19:50 10° ESE daylight
25 Oct - 11:53:58 10° W 11:57:09 18° SW 12:00:19 10° S daylight
25 Oct - 20:38:02 10° SSE 20:39:45 12° SE 20:41:26 10° ESE daylight
25 Oct - 22:16:54 10° SW 22:21:14 51° NW 22:25:37 10° NNE visible
26 Oct - 10:27:36 10° NW 10:32:13 87° SW 10:36:47 10° SE daylight
26 Oct - 20:52:27 10° SSW 20:56:23 30° SE 21:00:20 10° ENE daylight
26 Oct - 22:34:35 10° W 22:37:45 19° NW 22:40:56 10° N visible
27 Oct - 09:04:02 10° N 09:07:22 20° NE 09:10:41 10° E daylight
27 Oct - 10:44:40 10° WNW 10:48:45 31° SW 10:52:49 10° SSE daylight
27 Oct - 21:08:28 10° SW 21:12:55 86° SE 21:17:24 10° NE visible
28 Oct - 09:19:23 10° NNW 09:23:53 52° NE 09:28:21 10° SE daylight
28 Oct - 11:03:24 10° WSW 11:05:24 13° SW 11:07:23 10° SSW daylight
28 Oct - 19:45:00 10° S 19:48:00 18° SE 19:51:01 10° E daylight
28 Oct - 21:25:26 10° WSW 21:29:25 33° NW 21:33:27 10° NNE visible
29 Oct - 07:57:39 10° NE 07:59:00 11° NE 08:00:21 10° ENE visible
29 Oct - 09:35:51 10° NW 09:40:24 56° SW 09:44:54 10° SSE daylight
29 Oct - 20:00:20 10° SSW 20:04:36 46° SE 20:08:52 10° NE daylight
29 Oct - 21:44:06 10° WNW 21:45:56 12° NW 21:47:48 10° NNW visible
30 Oct - 08:11:31 10° N 08:15:33 29° NE 08:19:33 10° ESE daylight
30 Oct - 09:53:25 10° W 09:56:58 22° SW 10:00:29 10° S daylight
30 Oct - 18:39:27 10° SE 18:39:35 10° SE 18:39:42 10° SE daylight
30 Oct - 20:16:45 10° SW 20:21:06 60° NW 20:25:30 10° NNE daylight
31 Oct - 08:27:23 10° NW 08:32:03 81° NE 08:36:40 10° SE daylight
31 Oct - 18:52:32 10° S 18:56:15 26° SE 18:59:58 10° ENE daylight
31 Oct - 20:34:12 10° WSW 20:37:36 22° NW 20:41:01 10° N daylight
01 Nov - 07:04:09 10° N 07:07:11 17° NE 07:10:13 10° E visible
01 Nov - 08:44:17 10° WNW 08:48:35 37° SW 08:52:51 10° SSE daylight
01 Nov - 19:08:23 10° SW 19:12:48 73° SE 19:17:13 10° NE daylight
